SCP
0 0 0 0 0 0 0 0 0 0 0 0 0 0 0 0 0 0 0 0 0 0 0 0 0 0 0
0 0 0 0 0 0 0 0 0 0 0 0 0 0 0 0 0 0 0 0 0 0 0 0 0 0 0
0 0 0 0 0 0 0 0 0 0 0 0 0 0 0 0 0 0 0 0 0 0 0 0 0 0 0
0 0 0 0 0 0 0 0 0 0 0 0 0 0 0 0 0 0 0 0 0 0 0 0 0 0 0
0 0 0 0 0 0 0 0 0 0 0 0 0 0 0 0 0 0 0 0 0 0 0 0 0 0 0
0 0 0 0 0 0 0 0 0 0 0 0 0 0 0 0 0 0 0 0 0 0 0 0 0 0 0
0 0 0 0 0 0 0 0 0 0 0 0 0 0 0 0 0 0 0 0 0 0 0 0 0 0 0
0 0 0 0 0 0 0 0 0 0 0 0 0 0 0 0 0 0 0 0 0 0 0 0 0 0 0
0 0 0 0 0 0 0 0 0 0 0 0 0 0 0 0 0 0 0 0 0 0 0 0 0 0 0
0 0 0 0 0 0 0 0 0 0 0 0 0 0 0 0 0 0 0 0 0 0 0 0 0 0 0
0 0 0 0 0 0 0 0 0 0 0 0 0 0 0 0 0 0 0 0 0 0 0 0 0 0 0
0 0 0 0 0 0 0 0 0 0 0 0 0 0 0 0 0 0 0 0 0 0 0 0 0 0 0
0 0 0 0 0 0 0 0 0 0 0 0 0 0 0 0 0 0 0 0 0 0 0 0 0 0 0
0 0 0 0 0 0 0 0 0 0 0 0 0 0 0 0 0 0 0 0 0 0 0 0 0 0 0
0 0 0 0 0 0 0 0 0 0 0 0 0 0 0 0 0 0 0 0 0 0 0 0 0 0 0
0 0 0 0 0 0 0 0 0 0 0 0 0 0 0 0 0 0 0 0 0 0 0 0 0 0 0
Wind_Speed_500mb
41 41 38 37 33 30 28 25 23 22 20 18 16 14 13 11 8 6 4 3 4 5 7 8 8 8 12
45 41 39 38 34 32 30 28 26 25 23 22 18 16 14 11 8 5 5 5 6 6 6 7 8 9 11
49 46 45 43 39 36 34 32 30 30 28 26 22 19 15 11 8 7 8 9 9 9 9 9 10 11 13
56 54 52 49 46 42 38 34 34 33 32 29 25 22 18 13 10 9 10 10 11 12 14 15 14 14 15
61 60 58 56 52 49 45 43 42 40 37 32 28 23 20 15 13 12 12 12 12 13 14 16 19 19 19
65 66 63 62 59 56 52 51 51 47 42 37 33 29 24 20 17 15 14 14 15 15 17 19 21 22 23
69 70 69 68 66 60 59 57 56 53 48 45 42 37 32 27 22 18 18 17 16 18 20 22 23 23 24
73 73 72 72 70 68 66 63 60 57 53 50 46 43 38 31 25 21 20 19 19 19 20 20 22 24 26
77 76 76 75 74 74 72 68 66 63 59 56 52 49 42 36 31 27 25 24 23 22 21 21 22 23 23
82 80 81 79 79 78 76 74 72 68 64 62 59 54 49 42 36 32 31 28 26 23 21 22 22 23 24
86 86 86 83 83 82 80 80 77 73 71 69 65 59 53 49 42 37 35 32 30 27 24 24 24 22 22
87 91 92 89 90 86 85 84 81 80 77 75 70 66 61 54 49 45 39 37 33 29 27 25 25 23 22
91 98 101 103 97 94 92 89 87 85 83 81 76 72 67 61 54 47 45 41 35 30 27 23 19 19 15
91 95 103 104 101 97 96 96 93 92 88 85 81 77 71 66 61 56 51 44 39 34 27 23 13 14 23
92 98 104 105 103 105 108 101 99 97 93 91 85 79 74 69 65 59 54 49 43 38 32 21 10 11 13
91 98 105 110 113 111 107 101 101 99 97 94 90 85 79 74 70 65 61 56 50 45 36 31 28 27 18
Wind_Direction_500mb
218 223 226 227 227 227 227 227 226 228 222 210 202 200 205 208 207 213 222 253 280 304 316 316 305 290 286
223 225 226 229 229 226 223 222 220 216 211 211 212 213 214 220 233 263 287 292 305 318 317 312 305 300 288
226 227 226 228 230 229 225 221 216 214 210 210 209 210 218 233 254 284 303 310 317 322 324 320 315 304 296
225 226 227 229 230 232 232 230 222 218 215 215 212 215 223 237 256 270 284 296 310 320 327 331 329 319 307
229 229 227 229 230 231 230 227 225 224 224 221 222 224 228 237 250 269 284 293 302 312 316 319 320 318 312
231 232 232 231 231 231 230 227 226 227 226 224 226 230 233 238 247 263 275 283 292 302 312 318 318 317 314
234 233 232 232 233 233 232 229 227 225 226 226 226 227 230 235 240 250 265 276 284 296 305 313 318 317 316
239 237 236 235 234 233 233 232 230 229 227 226 226 227 230 233 242 254 263 272 284 295 301 307 309 313 314
242 241 239 238 235 234 233 231 229 228 228 228 228 229 231 233 239 249 258 267 276 284 295 306 312 316 316
244 243 242 239 237 235 234 232 230 230 229 230 230 229 230 233 237 240 250 259 270 281 294 301 306 313 315
243 243 243 241 240 237 235 232 230 231 230 231 231 230 231 232 234 242 249 257 265 277 286 295 300 305 303
243 241 240 240 237 237 236 234 232 232 231 231 230 230 231 232 235 239 245 252 260 270 282 290 296 297 291
239 238 236 236 235 234 233 233 233 232 231 231 230 229 231 232 235 237 242 248 257 266 276 282 287 285 255
242 241 238 237 236 237 236 231 229 229 230 232 231 231 231 231 231 235 240 246 252 258 262 274 267 252 248
243 240 236 235 235 233 232 231 229 229 228 229 230 232 232 233 234 238 240 243 246 250 254 250 240 228 187
246 242 238 236 233 236 236 234 231 230 230 230 229 228 230 232 233 235 237 238 240 244 247 251 252 247 236
Wind_Speed_850mb
41 41 38 37 33 30 28 25 23 22 20 18 16 14 13 11 8 6 4 3 4 5 7 8 8 8 12
45 41 39 38 34 32 30 28 26 25 23 22 18 16 14 11 8 5 5 5 6 6 6 7 8 9 11
49 46 45 43 39 36 34 32 30 30 28 26 22 19 15 11 8 7 8 9 9 9 9 9 10 11 13
56 54 52 49 46 42 38 34 34 33 32 29 25 22 18 13 10 9 10 10 11 12 14 15 14 14 15
61 60 58 56 52 49 45 43 42 40 37 32 28 23 20 15 13 12 12 12 12 13 14 16 19 19 19
65 66 63 62 59 56 52 51 51 47 42 37 33 29 24 20 17 15 14 14 15 15 17 19 21 22 23
69 70 69 68 66 60 59 57 56 53 48 45 42 37 32 27 22 18 18 17 16 18 20 22 23 23 24
73 73 72 72 70 68 66 63 60 57 53 50 46 43 38 31 25 21 20 19 19 19 20 20 22 24 26
77 76 76 75 74 74 72 68 66 63 59 56 52 49 42 36 31 27 25 24 23 22 21 21 22 23 23
82 80 81 79 79 78 76 74 72 68 64 62 59 54 49 42 36 32 31 28 26 23 21 22 22 23 24
86 86 86 83 83 82 80 80 77 73 71 69 65 59 53 49 42 37 35 32 30 27 24 24 24 22 22
87 91 92 89 90 86 85 84 81 80 77 75 70 66 61 54 49 45 39 37 33 29 27 25 25 23 22
91 98 101 103 97 94 92 89 87 85 83 81 76 72 67 61 54 47 45 41 35 30 27 23 19 19 15
91 95 103 104 101 97 96 96 93 92 88 85 81 77 71 66 61 56 51 44 39 34 27 23 13 14 23
92 98 104 105 103 105 108 101 99 97 93 91 85 79 74 69 65 59 54 49 43 38 32 21 10 11 13
91 98 105 110 113 111 107 101 101 99 97 94 90 85 79 74 70 65 61 56 50 45 36 31 28 27 18
Wind_Direction_850mb
218 223 226 227 227 227 227 227 226 228 222 210 202 200 205 208 207 213 222 253 280 304 316 316 305 290 286
223 225 226 229 229 226 223 222 220 216 211 211 212 213 214 220 233 263 287 292 305 318 317 312 305 300 288
226 227 226 228 230 229 225 221 216 214 210 210 209 210 218 233 254 284 303 310 317 322 324 320 315 304 296
225 226 227 229 230 232 232 230 222 218 215 215 212 215 223 237 256 270 284 296 310 320 327 331 329 319 307
229 229 227 229 230 231 230 227 225 224 224 221 222 224 228 237 250 269 284 293 302 312 316 319 320 318 312
231 232 232 231 231 231 230 227 226 227 226 224 226 230 233 238 247 263 275 283 292 302 312 318 318 317 314
234 233 232 232 233 233 232 229 227 225 226 226 226 227 230 235 240 250 265 276 284 296 305 313 318 317 316
239 237 236 235 234 233 233 232 230 229 227 226 226 227 230 233 242 254 263 272 284 295 301 307 309 313 314
242 241 239 238 235 234 233 231 229 228 228 228 228 229 231 233 239 249 258 267 276 284 295 306 312 316 316
244 243 242 239 237 235 234 232 230 230 229 230 230 229 230 233 237 240 250 259 270 281 294 301 306 313 315
243 243 243 241 240 237 235 232 230 231 230 231 231 230 231 232 234 242 249 257 265 277 286 295 300 305 303
243 241 240 240 237 237 236 234 232 232 231 231 230 230 231 232 235 239 245 252 260 270 282 290 296 297 291
239 238 236 236 235 234 233 233 233 232 231 231 230 229 231 232 235 237 242 248 257 266 276 282 287 285 255
242 241 238 237 236 237 236 231 229 229 230 232 231 231 231 231 231 235 240 246 252 258 262 274 267 252 248
243 240 236 235 235 233 232 231 229 229 228 229 230 232 232 233 234 238 240 243 246 250 254 250 240 228 187
246 242 238 236 233 236 236 234 231 230 230 230 229 228 230 232 233 235 237 238 240 244 247 251 252 247 236